contact:dominique.lefevre@mio.osupytheas.fr, maurice.libes@osupytheas.fr, didier.mallarino@osupytheas.fr
Project:EMSO http://www.emso-fr.org/EMSO-France
Depth: 2436.0 m
Title:EMSO Ligure Ouest : Data MII capteur MICROCAT
DateTime_Computer,Latitude,Longitude,Temperature,Conductivity,Pressure,DateTime_Instrument
DateTime_Computer,Latitude,Longitude,degC,S m-1,dbar,DateTime_Instrument
2023-05-30T00:02:46Z,42.805,6.029,13.3053,4.60119,2470.684,2023-5-30T02:04:59Z
2023-05-30T00:05:49Z,42.805,6.029,13.3044,4.60161,2470.67,2023-5-30T02:08:02Z
2023-05-30T00:08:52Z,42.805,6.029,13.3039,4.60117,2470.646,2023-5-30T02:11:05Z
2023-05-30T00:11:55Z,42.805,6.029,13.3046,4.60098,2470.693,2023-5-30T02:14:08Z
2023-05-30T00:14:59Z,42.805,6.029,13.3049,4.60108,2470.693,2023-5-30T02:17:11Z
2023-05-30T00:18:02Z,42.805,6.029,13.3046,4.60096,2470.693,2023-5-30T02:20:14Z
2023-05-30T00:21:05Z,42.805,6.029,13.3031,4.60084,2470.67,2023-5-30T02:23:17Z
2023-05-30T00:24:08Z,42.805,6.029,13.3031,4.60089,2470.679,2023-5-30T02:26:21Z
2023-05-30T00:27:11Z,42.805,6.029,13.3031,4.60087,2470.693,2023-5-30T02:29:24Z
2023-05-30T00:30:14Z,42.805,6.029,13.3031,4.60085,2470.693,2023-5-30T02:32:27Z
2023-05-30T00:33:17Z,42.805,6.029,13.3026,4.60083,2470.74,2023-5-30T02:35:30Z
2023-05-30T00:36:20Z,42.805,6.029,13.3033,4.60108,2470.693,2023-5-30T02:38:33Z
2023-05-30T00:39:23Z,42.805,6.029,13.3035,4.60102,2470.707,2023-5-30T02:41:36Z
2023-05-30T00:42:26Z,42.805,6.029,13.3036,4.60088,2470.73,2023-5-30T02:44:39Z
2023-05-30T00:45:29Z,42.805,6.029,13.3064,4.60099,2470.693,2023-5-30T02:47:42Z
2023-05-30T00:48:32Z,42.805,6.029,13.3037,4.60105,2470.693,2023-5-30T02:50:45Z
2023-05-30T00:51:36Z,42.805,6.029,13.3029,4.60099,2470.67,2023-5-30T02:53:48Z
2023-05-30T00:54:39Z,42.805,6.029,13.3035,4.60082,2470.693,2023-5-30T02:56:51Z
2023-05-30T00:57:42Z,42.805,6.029,13.3043,4.60101,2470.717,2023-5-30T02:59:54Z
2023-05-30T01:00:45Z,42.805,6.029,13.3043,4.60109,2470.693,2023-5-30T03:02:58Z
2023-05-30T01:03:48Z,42.805,6.029,13.3047,4.60102,2470.693,2023-5-30T03:06:01Z
2023-05-30T01:06:51Z,42.805,6.029,13.3058,4.60102,2470.693,2023-5-30T03:09:04Z
2023-05-30T01:09:54Z,42.805,6.029,13.3031,4.60099,2470.717,2023-5-30T03:12:07Z
2023-05-30T01:12:57Z,42.805,6.029,13.3029,4.60097,2470.73,2023-5-30T03:15:10Z
2023-05-30T01:16:00Z,42.805,6.029,13.3039,4.60096,2470.717,2023-5-30T03:18:13Z
2023-05-30T01:19:03Z,42.805,6.029,13.3036,4.60094,2470.693,2023-5-30T03:21:16Z
2023-05-30T01:22:06Z,42.805,6.029,13.3026,4.60083,2470.67,2023-5-30T03:24:19Z
2023-05-30T01:25:09Z,42.805,6.029,13.3040,4.60085,2470.717,2023-5-30T03:27:22Z
2023-05-30T01:28:12Z,42.805,6.029,13.3028,4.60083,2470.717,2023-5-30T03:30:25Z
2023-05-30T01:31:16Z,42.805,6.029,13.3026,4.60081,2470.717,2023-5-30T03:33:28Z
2023-05-30T01:34:19Z,42.805,6.029,13.3028,4.60082,2470.717,2023-5-30T03:36:31Z
2023-05-30T01:37:22Z,42.805,6.029,13.3029,4.60087,2470.717,2023-5-30T03:39:34Z
2023-05-30T01:40:25Z,42.805,6.029,13.3038,4.60086,2470.73,2023-5-30T03:42:38Z
2023-05-30T01:43:28Z,42.805,6.029,13.3026,4.60092,2470.717,2023-5-30T03:45:41Z
2023-05-30T01:46:31Z,42.805,6.029,13.3043,4.60087,2470.74,2023-5-30T03:48:44Z
2023-05-30T01:49:34Z,42.805,6.029,13.3039,4.60093,2470.717,2023-5-30T03:51:47Z
2023-05-30T01:52:37Z,42.805,6.029,13.3045,4.60097,2470.717,2023-5-30T03:54:50Z
2023-05-30T01:55:40Z,42.805,6.029,13.3067,4.60100,2470.693,2023-5-30T03:57:53Z
2023-05-30T01:58:43Z,42.805,6.029,13.3028,4.60086,2470.717,2023-5-30T04:00:56Z
2023-05-30T02:01:46Z,42.805,6.029,13.3039,4.60105,2470.754,2023-5-30T04:03:59Z
2023-05-30T02:04:49Z,42.805,6.029,13.3037,4.60084,2470.717,2023-5-30T04:07:02Z
2023-05-30T02:07:53Z,42.805,6.029,13.3047,4.60097,2470.754,2023-5-30T04:10:05Z
2023-05-30T02:10:56Z,42.805,6.029,13.3026,4.60084,2470.74,2023-5-30T04:13:08Z
2023-05-30T02:13:59Z,42.805,6.029,13.3037,4.60094,2470.754,2023-5-30T04:16:11Z
2023-05-30T02:17:02Z,42.805,6.029,13.3030,4.60094,2470.777,2023-5-30T04:19:15Z
2023-05-30T02:20:05Z,42.805,6.029,13.3022,4.60082,2470.74,2023-5-30T04:22:18Z
2023-05-30T02:23:08Z,42.805,6.029,13.3024,4.60082,2470.74,2023-5-30T04:25:21Z
2023-05-30T02:26:11Z,42.805,6.029,13.3032,4.60102,2470.73,2023-5-30T04:28:24Z
2023-05-30T02:29:14Z,42.805,6.029,13.3026,4.60085,2470.73,2023-5-30T04:31:27Z
2023-05-30T02:32:17Z,42.805,6.029,13.3025,4.60081,2470.74,2023-5-30T04:34:30Z
2023-05-30T02:35:20Z,42.805,6.029,13.3030,4.60084,2470.74,2023-5-30T04:37:33Z
2023-05-30T02:38:23Z,42.805,6.029,13.3024,4.60084,2470.717,2023-5-30T04:40:36Z
2023-05-30T02:41:26Z,42.805,6.029,13.3028,4.60081,2470.74,2023-5-30T04:43:39Z
2023-05-30T02:44:30Z,42.805,6.029,13.3031,4.60087,2470.777,2023-5-30T04:46:42Z
2023-05-30T02:47:33Z,42.805,6.029,13.3026,4.60084,2470.754,2023-5-30T04:49:45Z
2023-05-30T02:50:36Z,42.805,6.029,13.3031,4.60088,2470.754,2023-5-30T04:52:48Z
2023-05-30T02:53:39Z,42.805,6.029,13.3024,4.60087,2470.75,2023-5-30T04:55:52Z
2023-05-30T02:56:42Z,42.805,6.029,13.3033,4.60091,2470.763,2023-5-30T04:58:55Z
2023-05-30T02:59:45Z,42.805,6.029,13.3032,4.60085,2470.763,2023-5-30T05:01:58Z
2023-05-30T03:02:48Z,42.805,6.029,13.3028,4.60086,2470.74,2023-5-30T05:05:01Z
2023-05-30T03:05:51Z,42.805,6.029,13.3029,4.60087,2470.74,2023-5-30T05:08:04Z
2023-05-30T03:08:54Z,42.805,6.029,13.3028,4.60084,2470.754,2023-5-30T05:11:07Z
2023-05-30T03:11:57Z,42.805,6.029,13.3024,4.60083,2470.74,2023-5-30T05:14:10Z
2023-05-30T03:15:00Z,42.805,6.029,13.3029,4.60091,2470.777,2023-5-30T05:17:13Z
2023-05-30T03:18:03Z,42.805,6.029,13.3028,4.60087,2470.74,2023-5-30T05:20:16Z
2023-05-30T03:21:06Z,42.805,6.029,13.3031,4.60088,2470.763,2023-5-30T05:23:19Z
2023-05-30T03:24:10Z,42.805,6.029,13.3026,4.60083,2470.754,2023-5-30T05:26:22Z
2023-05-30T03:27:13Z,42.805,6.029,13.3033,4.60082,2470.763,2023-5-30T05:29:25Z
2023-05-30T03:30:16Z,42.805,6.029,13.3028,4.60082,2470.74,2023-5-30T05:32:28Z
2023-05-30T03:33:19Z,42.805,6.029,13.3041,4.60083,2470.777,2023-5-30T05:35:32Z
2023-05-30T03:36:22Z,42.805,6.029,13.3031,4.60084,2470.74,2023-5-30T05:38:35Z
2023-05-30T03:39:25Z,42.805,6.029,13.3040,4.60084,2470.763,2023-5-30T05:41:38Z
2023-05-30T03:42:28Z,42.805,6.029,13.3026,4.60088,2470.763,2023-5-30T05:44:41Z
2023-05-30T03:45:31Z,42.805,6.029,13.3026,4.60099,2470.74,2023-5-30T05:47:44Z
2023-05-30T03:48:34Z,42.805,6.029,13.3032,4.60084,2470.787,2023-5-30T05:50:47Z
2023-05-30T03:51:37Z,42.805,6.029,13.3043,4.60097,2470.74,2023-5-30T05:53:50Z
2023-05-30T03:54:40Z,42.805,6.029,13.3038,4.60092,2470.763,2023-5-30T05:56:53Z
2023-05-30T03:57:43Z,42.805,6.029,13.3039,4.60104,2470.787,2023-5-30T05:59:56Z
2023-05-30T04:00:47Z,42.805,6.029,13.3044,4.60119,2470.73,2023-5-30T06:02:59Z
2023-05-30T04:03:50Z,42.805,6.029,13.3046,4.60110,2470.74,2023-5-30T06:06:02Z
2023-05-30T04:06:53Z,42.805,6.029,13.3038,4.60117,2470.74,2023-5-30T06:09:05Z
2023-05-30T04:09:56Z,42.805,6.029,13.3045,4.60106,2470.787,2023-5-30T06:12:09Z
2023-05-30T04:12:59Z,42.805,6.029,13.3051,4.60102,2470.777,2023-5-30T06:15:12Z
2023-05-30T04:16:02Z,42.805,6.029,13.3036,4.60091,2470.754,2023-5-30T06:18:15Z
2023-05-30T04:19:05Z,42.805,6.029,13.3036,4.60091,2470.777,2023-5-30T06:21:18Z
2023-05-30T04:22:08Z,42.805,6.029,13.3038,4.60091,2470.777,2023-5-30T06:24:21Z
2023-05-30T04:25:11Z,42.805,6.029,13.3041,4.60084,2470.763,2023-5-30T06:27:24Z
2023-05-30T04:28:14Z,42.805,6.029,13.3042,4.60104,2470.754,2023-5-30T06:30:27Z
2023-05-30T04:31:17Z,42.805,6.029,13.3034,4.60089,2470.763,2023-5-30T06:33:30Z
2023-05-30T04:34:20Z,42.805,6.029,13.3043,4.60104,2470.74,2023-5-30T06:36:33Z
2023-05-30T04:37:24Z,42.805,6.029,13.3033,4.60097,2470.763,2023-5-30T06:39:36Z
2023-05-30T04:40:27Z,42.805,6.029,13.3028,4.60084,2470.8,2023-5-30T06:42:39Z
2023-05-30T04:43:30Z,42.805,6.029,13.3029,4.60084,2470.74,2023-5-30T06:45:42Z
2023-05-30T04:46:33Z,42.805,6.029,13.3040,4.60097,2470.74,2023-5-30T06:48:46Z
2023-05-30T04:49:36Z,42.805,6.029,13.3035,4.60089,2470.74,2023-5-30T06:51:49Z
2023-05-30T04:52:39Z,42.805,6.029,13.3029,4.60091,2470.763,2023-5-30T06:54:52Z
2023-05-30T04:55:42Z,42.805,6.029,13.3035,4.60089,2470.787,2023-5-30T06:57:55Z
2023-05-30T04:58:45Z,42.805,6.029,13.3026,4.60089,2470.763,2023-5-30T07:00:58Z
2023-05-30T05:01:48Z,42.805,6.029,13.3034,4.60107,2470.777,2023-5-30T07:04:01Z
2023-05-30T05:04:51Z,42.805,6.029,13.3040,4.60095,2470.777,2023-5-30T07:07:04Z
2023-05-30T05:07:54Z,42.805,6.029,13.3041,4.60101,2470.754,2023-5-30T07:10:07Z
2023-05-30T05:10:57Z,42.805,6.029,13.3033,4.60089,2470.763,2023-5-30T07:13:10Z
2023-05-30T05:14:00Z,42.805,6.029,13.3041,4.60094,2470.74,2023-5-30T07:16:13Z
2023-05-30T05:17:04Z,42.805,6.029,13.3039,4.60104,2470.74,2023-5-30T07:19:16Z
2023-05-30T05:20:07Z,42.805,6.029,13.3041,4.60104,2470.8,2023-5-30T07:22:19Z
2023-05-30T05:23:10Z,42.805,6.029,13.3036,4.60100,2470.717,2023-5-30T07:25:22Z
2023-05-30T05:26:13Z,42.805,6.029,13.3034,4.60112,2470.763,2023-5-30T07:28:26Z
2023-05-30T05:29:16Z,42.805,6.029,13.3027,4.60089,2470.763,2023-5-30T07:31:29Z
2023-05-30T05:32:19Z,42.805,6.029,13.3054,4.60089,2470.777,2023-5-30T07:34:32Z
2023-05-30T05:35:22Z,42.805,6.029,13.3041,4.60094,2470.754,2023-5-30T07:37:35Z
2023-05-30T05:38:25Z,42.805,6.029,13.3039,4.60098,2470.754,2023-5-30T07:40:38Z
2023-05-30T05:41:28Z,42.805,6.029,13.3040,4.60090,2470.74,2023-5-30T07:43:41Z
2023-05-30T05:44:31Z,42.805,6.029,13.3041,4.60098,2470.74,2023-5-30T07:46:44Z
2023-05-30T05:47:34Z,42.805,6.029,13.3039,4.60110,2470.717,2023-5-30T07:49:47Z
2023-05-30T05:50:37Z,42.805,6.029,13.3043,4.60121,2470.754,2023-5-30T07:52:50Z
2023-05-30T05:53:41Z,42.805,6.029,13.3036,4.60099,2470.754,2023-5-30T07:55:53Z
2023-05-30T05:56:44Z,42.805,6.029,13.3046,4.60096,2470.74,2023-5-30T07:58:56Z
2023-05-30T05:59:47Z,42.805,6.029,13.3048,4.60101,2470.707,2023-5-30T08:01:59Z
2023-05-30T06:02:50Z,42.805,6.029,13.3036,4.60137,2470.707,2023-5-30T08:05:03Z
2023-05-30T06:05:53Z,42.805,6.029,13.3036,4.60127,2470.73,2023-5-30T08:08:06Z
2023-05-30T06:08:56Z,42.805,6.029,13.3036,4.60125,2470.74,2023-5-30T08:11:09Z
2023-05-30T06:11:59Z,42.805,6.029,13.3038,4.60135,2470.717,2023-5-30T08:14:12Z
2023-05-30T06:15:02Z,42.805,6.029,13.3039,4.60116,2470.74,2023-5-30T08:17:15Z
2023-05-30T06:18:05Z,42.805,6.029,13.3041,4.60129,2470.754,2023-5-30T08:20:18Z
2023-05-30T06:21:08Z,42.805,6.029,13.3035,4.60119,2470.717,2023-5-30T08:23:21Z
2023-05-30T06:24:11Z,42.805,6.029,13.3031,4.60110,2470.717,2023-5-30T08:26:24Z
2023-05-30T06:27:14Z,42.805,6.029,13.3038,4.60135,2470.693,2023-5-30T08:29:27Z
2023-05-30T06:30:19Z,42.805,6.029,13.3046,4.60137,2470.707,2023-5-30T08:32:32Z
2023-05-30T06:33:22Z,42.805,6.029,13.3046,4.60127,2470.73,2023-5-30T08:35:35Z
2023-05-30T06:36:25Z,42.805,6.029,13.3037,4.60115,2470.684,2023-5-30T08:38:38Z
2023-05-30T06:39:28Z,42.805,6.029,13.3034,4.60112,2470.693,2023-5-30T08:41:41Z
2023-05-30T06:42:31Z,42.805,6.029,13.3051,4.60132,2470.73,2023-5-30T08:44:44Z
2023-05-30T06:45:34Z,42.805,6.029,13.3049,4.60125,2470.73,2023-5-30T08:47:47Z
2023-05-30T06:48:37Z,42.805,6.029,13.3038,4.60124,2470.707,2023-5-30T08:50:50Z
2023-05-30T06:51:40Z,42.805,6.029,13.3036,4.60119,2470.754,2023-5-30T08:53:53Z
2023-05-30T06:54:44Z,42.805,6.029,13.3041,4.60135,2470.707,2023-5-30T08:56:56Z
2023-05-30T06:57:47Z,42.805,6.029,13.3036,4.60129,2470.707,2023-5-30T08:59:59Z
2023-05-30T07:00:50Z,42.805,6.029,13.3043,4.60132,2470.646,2023-5-30T09:03:02Z
2023-05-30T07:03:53Z,42.805,6.029,13.3038,4.60118,2470.707,2023-5-30T09:06:06Z
2023-05-30T07:06:56Z,42.805,6.029,13.3034,4.60122,2470.717,2023-5-30T09:09:09Z
2023-05-30T07:09:59Z,42.805,6.029,13.3040,4.60138,2470.717,2023-5-30T09:12:12Z
2023-05-30T07:13:02Z,42.805,6.029,13.3039,4.60122,2470.684,2023-5-30T09:15:15Z
2023-05-30T07:16:05Z,42.805,6.029,13.3036,4.60125,2470.693,2023-5-30T09:18:18Z
2023-05-30T07:19:08Z,42.805,6.029,13.3041,4.60126,2470.707,2023-5-30T09:21:21Z
2023-05-30T07:22:11Z,42.805,6.029,13.3039,4.60126,2470.661,2023-5-30T09:24:24Z
2023-05-30T07:25:14Z,42.805,6.029,13.3035,4.60128,2470.67,2023-5-30T09:27:27Z
2023-05-30T07:28:17Z,42.805,6.029,13.3041,4.60123,2470.661,2023-5-30T09:30:30Z
2023-05-30T07:31:21Z,42.805,6.029,13.3041,4.60129,2470.656,2023-5-30T09:33:33Z
2023-05-30T07:34:24Z,42.805,6.029,13.3034,4.60138,2470.684,2023-5-30T09:36:36Z
2023-05-30T07:37:27Z,42.805,6.029,13.3036,4.60117,2470.684,2023-5-30T09:39:39Z
2023-05-30T07:40:30Z,42.805,6.029,13.3036,4.60123,2470.693,2023-5-30T09:42:42Z
2023-05-30T07:43:33Z,42.805,6.029,13.3045,4.60121,2470.693,2023-5-30T09:45:46Z
2023-05-30T07:46:36Z,42.805,6.029,13.3044,4.60117,2470.684,2023-5-30T09:48:49Z
2023-05-30T07:49:39Z,42.805,6.029,13.3040,4.60122,2470.661,2023-5-30T09:51:52Z
2023-05-30T07:52:42Z,42.805,6.029,13.3037,4.60127,2470.693,2023-5-30T09:54:55Z
2023-05-30T07:55:45Z,42.805,6.029,13.3040,4.60127,2470.661,2023-5-30T09:57:58Z
2023-05-30T07:58:48Z,42.805,6.029,13.3039,4.60127,2470.684,2023-5-30T10:01:01Z
2023-05-30T08:01:51Z,42.805,6.029,13.3043,4.60125,2470.67,2023-5-30T10:04:04Z
2023-05-30T08:04:54Z,42.805,6.029,13.3039,4.60130,2470.646,2023-5-30T10:07:07Z
2023-05-30T08:07:58Z,42.805,6.029,13.3046,4.60133,2470.637,2023-5-30T10:10:10Z
2023-05-30T08:11:01Z,42.805,6.029,13.3036,4.60138,2470.67,2023-5-30T10:13:13Z
2023-05-30T08:14:04Z,42.805,6.029,13.3041,4.60118,2470.646,2023-5-30T10:16:16Z
2023-05-30T08:17:07Z,42.805,6.029,13.3045,4.60133,2470.624,2023-5-30T10:19:20Z
2023-05-30T08:20:10Z,42.805,6.029,13.3036,4.60146,2470.661,2023-5-30T10:22:23Z
2023-05-30T08:23:13Z,42.805,6.029,13.3031,4.60128,2470.67,2023-5-30T10:25:26Z
2023-05-30T08:26:16Z,42.805,6.029,13.3036,4.60137,2470.646,2023-5-30T10:28:29Z
2023-05-30T08:29:19Z,42.805,6.029,13.3043,4.60126,2470.646,2023-5-30T10:31:32Z
2023-05-30T08:32:22Z,42.805,6.029,13.3039,4.60122,2470.646,2023-5-30T10:34:35Z
2023-05-30T08:35:25Z,42.805,6.029,13.3036,4.60110,2470.684,2023-5-30T10:37:38Z
2023-05-30T08:38:28Z,42.805,6.029,13.3040,4.60143,2470.624,2023-5-30T10:40:41Z
2023-05-30T08:41:31Z,42.805,6.029,13.3037,4.60123,2470.661,2023-5-30T10:43:44Z
2023-05-30T08:44:35Z,42.805,6.029,13.3037,4.60112,2470.661,2023-5-30T10:46:47Z
2023-05-30T08:47:38Z,42.805,6.029,13.3036,4.60115,2470.661,2023-5-30T10:49:50Z
2023-05-30T08:50:41Z,42.805,6.029,13.3037,4.60106,2470.6,2023-5-30T10:52:53Z
2023-05-30T08:53:44Z,42.805,6.029,13.3037,4.60106,2470.624,2023-5-30T10:55:57Z
2023-05-30T08:56:47Z,42.805,6.029,13.3034,4.60107,2470.624,2023-5-30T10:59:00Z
2023-05-30T08:59:50Z,42.805,6.029,13.3036,4.60116,2470.661,2023-5-30T11:02:03Z
2023-05-30T09:02:53Z,42.805,6.029,13.3029,4.60107,2470.646,2023-5-30T11:05:06Z
2023-05-30T09:05:56Z,42.805,6.029,13.3033,4.60099,2470.6,2023-5-30T11:08:09Z
2023-05-30T09:08:59Z,42.805,6.029,13.3039,4.60110,2470.624,2023-5-30T11:11:12Z
2023-05-30T09:12:02Z,42.805,6.029,13.3035,4.60111,2470.6,2023-5-30T11:14:15Z
2023-05-30T09:15:05Z,42.805,6.029,13.3029,4.60099,2470.67,2023-5-30T11:17:18Z
2023-05-30T09:18:08Z,42.805,6.029,13.3036,4.60122,2470.614,2023-5-30T11:20:21Z
2023-05-30T09:21:12Z,42.805,6.029,13.3038,4.60112,2470.646,2023-5-30T11:23:24Z
2023-05-30T09:24:15Z,42.805,6.029,13.3039,4.60125,2470.6,2023-5-30T11:26:27Z
2023-05-30T09:27:18Z,42.805,6.029,13.3028,4.60104,2470.646,2023-5-30T11:29:30Z
2023-05-30T09:30:21Z,42.805,6.029,13.3026,4.60100,2470.624,2023-5-30T11:32:34Z
2023-05-30T09:33:24Z,42.805,6.029,13.3034,4.60104,2470.646,2023-5-30T11:35:37Z
2023-05-30T09:36:27Z,42.805,6.029,13.3027,4.60103,2470.624,2023-5-30T11:38:40Z
2023-05-30T09:39:30Z,42.805,6.029,13.3028,4.60097,2470.661,2023-5-30T11:41:43Z
2023-05-30T09:42:33Z,42.805,6.029,13.3029,4.60099,2470.61,2023-5-30T11:44:46Z
2023-05-30T09:45:36Z,42.805,6.029,13.3030,4.60102,2470.637,2023-5-30T11:47:49Z
2023-05-30T09:48:39Z,42.805,6.029,13.3034,4.60098,2470.624,2023-5-30T11:50:52Z
2023-05-30T09:51:42Z,42.805,6.029,13.3034,4.60114,2470.614,2023-5-30T11:53:55Z
2023-05-30T09:54:46Z,42.805,6.029,13.3031,4.60110,2470.646,2023-5-30T11:56:58Z
2023-05-30T09:57:49Z,42.805,6.029,13.3032,4.60119,2470.6,2023-5-30T12:00:01Z
2023-05-30T10:00:52Z,42.805,6.029,13.3035,4.60105,2470.661,2023-5-30T12:03:04Z
2023-05-30T10:08:09Z,42.805,6.029,13.3031,4.60094,2470.637,2023-5-30T12:10:21Z
2023-05-30T10:11:12Z,42.805,6.029,13.3031,4.60104,2470.624,2023-5-30T12:13:25Z
2023-05-30T10:14:15Z,42.805,6.029,13.3038,4.60126,2470.614,2023-5-30T12:16:28Z
2023-05-30T10:17:18Z,42.805,6.029,13.3033,4.60107,2470.577,2023-5-30T12:19:31Z
2023-05-30T10:20:21Z,42.805,6.029,13.3027,4.60101,2470.661,2023-5-30T12:22:34Z
2023-05-30T10:23:24Z,42.805,6.029,13.3038,4.60120,2470.614,2023-5-30T12:25:37Z
2023-05-30T10:26:27Z,42.805,6.029,13.3034,4.60115,2470.6,2023-5-30T12:28:40Z
2023-05-30T10:29:30Z,42.805,6.029,13.3038,4.60126,2470.624,2023-5-30T12:31:43Z
2023-05-30T10:32:35Z,42.805,6.029,13.3027,4.60104,2470.624,2023-5-30T12:34:47Z
2023-05-30T10:35:38Z,42.805,6.029,13.3033,4.60119,2470.646,2023-5-30T12:37:50Z
2023-05-30T10:38:41Z,42.805,6.029,13.3031,4.60103,2470.6,2023-5-30T12:40:53Z
2023-05-30T10:41:44Z,42.805,6.029,13.3027,4.60101,2470.614,2023-5-30T12:43:57Z
2023-05-30T10:44:47Z,42.805,6.029,13.3032,4.60106,2470.6,2023-5-30T12:47:00Z
2023-05-30T10:47:50Z,42.805,6.029,13.3029,4.60115,2470.6,2023-5-30T12:50:03Z
2023-05-30T10:50:53Z,42.805,6.029,13.3038,4.60098,2470.577,2023-5-30T12:53:06Z
2023-05-30T10:53:56Z,42.805,6.029,13.3036,4.60116,2470.614,2023-5-30T12:56:09Z
2023-05-30T10:56:59Z,42.805,6.029,13.3033,4.60114,2470.624,2023-5-30T12:59:12Z
2023-05-30T11:00:02Z,42.805,6.029,13.3040,4.60123,2470.624,2023-5-30T13:02:15Z
2023-05-30T11:03:05Z,42.805,6.029,13.3040,4.60130,2470.577,2023-5-30T13:05:18Z
2023-05-30T11:06:08Z,42.805,6.029,13.3031,4.60105,2470.661,2023-5-30T13:08:21Z
2023-05-30T11:09:12Z,42.805,6.029,13.3027,4.60112,2470.637,2023-5-30T13:11:24Z
2023-05-30T11:12:15Z,42.805,6.029,13.3034,4.60114,2470.6,2023-5-30T13:14:27Z
2023-05-30T11:15:18Z,42.805,6.029,13.3029,4.60102,2470.6,2023-5-30T13:17:30Z
2023-05-30T11:18:21Z,42.805,6.029,13.3035,4.60110,2470.624,2023-5-30T13:20:34Z
2023-05-30T11:21:24Z,42.805,6.029,13.3029,4.60104,2470.591,2023-5-30T13:23:37Z
2023-05-30T11:24:27Z,42.805,6.029,13.3032,4.60103,2470.624,2023-5-30T13:26:40Z
2023-05-30T11:27:30Z,42.805,6.029,13.3039,4.60112,2470.591,2023-5-30T13:29:43Z
2023-05-30T11:30:33Z,42.805,6.029,13.3033,4.60102,2470.637,2023-5-30T13:32:46Z
2023-05-30T11:33:36Z,42.805,6.029,13.3040,4.60114,2470.624,2023-5-30T13:35:49Z
2023-05-30T11:36:39Z,42.805,6.029,13.3035,4.60132,2470.637,2023-5-30T13:38:52Z
2023-05-30T11:39:42Z,42.805,6.029,13.3027,4.60125,2470.614,2023-5-30T13:41:55Z
2023-05-30T11:42:45Z,42.805,6.029,13.3033,4.60105,2470.614,2023-5-30T13:44:58Z
2023-05-30T11:45:49Z,42.805,6.029,13.3039,4.60109,2470.624,2023-5-30T13:48:01Z
2023-05-30T11:48:52Z,42.805,6.029,13.3040,4.60114,2470.614,2023-5-30T13:51:04Z
2023-05-30T11:51:55Z,42.805,6.029,13.3040,4.60117,2470.624,2023-5-30T13:54:07Z
2023-05-30T11:54:58Z,42.805,6.029,13.3035,4.60119,2470.661,2023-5-30T13:57:11Z
2023-05-30T11:58:01Z,42.805,6.029,13.3035,4.60137,2470.6,2023-5-30T14:00:14Z
2023-05-30T12:01:04Z,42.805,6.029,13.3037,4.60123,2470.637,2023-5-30T14:03:17Z
2023-05-30T12:04:07Z,42.805,6.029,13.3037,4.60167,2470.661,2023-5-30T14:06:20Z
2023-05-30T12:07:10Z,42.805,6.029,13.3031,4.60132,2470.637,2023-5-30T14:09:23Z
2023-05-30T12:10:13Z,42.805,6.029,13.3046,4.60140,2470.624,2023-5-30T14:12:26Z
2023-05-30T12:13:16Z,42.805,6.029,13.3035,4.60108,2470.661,2023-5-30T14:15:29Z
2023-05-30T12:16:19Z,42.805,6.029,13.3030,4.60119,2470.624,2023-5-30T14:18:32Z
2023-05-30T12:19:22Z,42.805,6.029,13.3039,4.60108,2470.624,2023-5-30T14:21:35Z
2023-05-30T12:22:26Z,42.805,6.029,13.3037,4.60130,2470.624,2023-5-30T14:24:38Z
2023-05-30T12:25:29Z,42.805,6.029,13.3036,4.60137,2470.624,2023-5-30T14:27:41Z
2023-05-30T12:28:32Z,42.805,6.029,13.3030,4.60103,2470.646,2023-5-30T14:30:44Z
2023-05-30T12:31:33Z,42.805,6.029,13.3033,4.60114,2470.637,2023-5-30T14:33:46Z
2023-05-30T12:34:36Z,42.805,6.029,13.3030,4.60119,2470.661,2023-5-30T14:36:49Z
2023-05-30T12:37:39Z,42.805,6.029,13.3034,4.60129,2470.6,2023-5-30T14:39:52Z
2023-05-30T12:40:42Z,42.805,6.029,13.3036,4.60104,2470.67,2023-5-30T14:42:55Z
2023-05-30T12:43:45Z,42.805,6.029,13.3037,4.60122,2470.614,2023-5-30T14:45:58Z
2023-05-30T12:46:49Z,42.805,6.029,13.3035,4.60111,2470.67,2023-5-30T14:49:01Z
2023-05-30T12:49:52Z,42.805,6.029,13.3030,4.60106,2470.67,2023-5-30T14:52:04Z
2023-05-30T13:03:09Z,42.805,6.029,13.3037,4.60131,2470.646,2023-5-30T15:05:21Z
2023-05-30T13:06:12Z,42.805,6.029,13.3026,4.60113,2470.693,2023-5-30T15:08:24Z
2023-05-30T13:09:15Z,42.805,6.029,13.3038,4.60114,2470.67,2023-5-30T15:11:27Z
2023-05-30T13:12:18Z,42.805,6.029,13.3029,4.60103,2470.646,2023-5-30T15:14:30Z
2023-05-30T13:15:21Z,42.805,6.029,13.3052,4.60123,2470.646,2023-5-30T15:17:33Z
2023-05-30T13:18:24Z,42.805,6.029,13.3043,4.60136,2470.646,2023-5-30T15:20:36Z
2023-05-30T13:21:27Z,42.805,6.029,13.3035,4.60104,2470.661,2023-5-30T15:23:40Z
2023-05-30T13:24:30Z,42.805,6.029,13.3035,4.60113,2470.67,2023-5-30T15:26:43Z
2023-05-30T13:27:33Z,42.805,6.029,13.3031,4.60127,2470.67,2023-5-30T15:29:46Z
2023-05-30T13:30:36Z,42.805,6.029,13.3031,4.60112,2470.67,2023-5-30T15:32:49Z
2023-05-30T13:33:40Z,42.805,6.029,13.3029,4.60115,2470.693,2023-5-30T15:35:52Z
2023-05-30T13:36:43Z,42.805,6.029,13.3036,4.60112,2470.684,2023-5-30T15:38:55Z
2023-05-30T13:39:46Z,42.805,6.029,13.3039,4.60125,2470.707,2023-5-30T15:41:58Z
2023-05-30T13:42:49Z,42.805,6.029,13.3039,4.60125,2470.67,2023-5-30T15:45:01Z
2023-05-30T13:45:52Z,42.805,6.029,13.3039,4.60126,2470.693,2023-5-30T15:48:04Z
2023-05-30T13:48:55Z,42.805,6.029,13.3034,4.60107,2470.707,2023-5-30T15:51:07Z
2023-05-30T13:51:58Z,42.805,6.029,13.3043,4.60115,2470.661,2023-5-30T15:54:10Z
2023-05-30T13:55:01Z,42.805,6.029,13.3031,4.60119,2470.693,2023-5-30T15:57:13Z
2023-05-30T13:58:04Z,42.805,6.029,13.3035,4.60141,2470.693,2023-5-30T16:00:17Z
2023-05-30T14:01:07Z,42.805,6.029,13.3035,4.60130,2470.684,2023-5-30T16:03:20Z
2023-05-30T14:04:10Z,42.805,6.029,13.3034,4.60122,2470.67,2023-5-30T16:06:23Z
2023-05-30T14:07:13Z,42.805,6.029,13.3033,4.60135,2470.67,2023-5-30T16:09:26Z
2023-05-30T14:10:17Z,42.805,6.029,13.3027,4.60144,2470.693,2023-5-30T16:12:29Z
2023-05-30T14:13:20Z,42.805,6.029,13.3038,4.60132,2470.693,2023-5-30T16:15:32Z
2023-05-30T14:16:23Z,42.805,6.029,13.3039,4.60152,2470.67,2023-5-30T16:18:35Z
2023-05-30T14:19:26Z,42.805,6.029,13.3044,4.60134,2470.73,2023-5-30T16:21:38Z
2023-05-30T14:22:29Z,42.805,6.029,13.3037,4.60127,2470.717,2023-5-30T16:24:41Z
2023-05-30T14:25:32Z,42.805,6.029,13.3036,4.60138,2470.67,2023-5-30T16:27:44Z
2023-05-30T14:28:35Z,42.805,6.029,13.3041,4.60131,2470.693,2023-5-30T16:30:47Z
2023-05-30T14:31:38Z,42.805,6.029,13.3049,4.60132,2470.684,2023-5-30T16:33:50Z
2023-05-30T14:34:41Z,42.805,6.029,13.3039,4.60137,2470.693,2023-5-30T16:36:54Z
2023-05-30T14:37:44Z,42.805,6.029,13.3029,4.60106,2470.707,2023-5-30T16:39:57Z
2023-05-30T14:40:47Z,42.805,6.029,13.3049,4.60125,2470.693,2023-5-30T16:43:00Z
2023-05-30T14:43:50Z,42.805,6.029,13.3053,4.60138,2470.717,2023-5-30T16:46:03Z
2023-05-30T14:46:54Z,42.805,6.029,13.3052,4.60150,2470.707,2023-5-30T16:49:06Z
2023-05-30T14:49:57Z,42.805,6.029,13.3039,4.60123,2470.717,2023-5-30T16:52:09Z
2023-05-30T14:53:00Z,42.805,6.029,13.3051,4.60152,2470.67,2023-5-30T16:55:12Z
2023-05-30T14:56:03Z,42.805,6.029,13.3044,4.60155,2470.646,2023-5-30T16:58:15Z
2023-05-30T14:59:06Z,42.805,6.029,13.3059,4.60149,2470.717,2023-5-30T17:01:18Z
2023-05-30T15:02:09Z,42.805,6.029,13.3048,4.60142,2470.717,2023-5-30T17:04:21Z
2023-05-30T15:05:12Z,42.805,6.029,13.3055,4.60155,2470.754,2023-5-30T17:07:24Z
2023-05-30T15:08:15Z,42.805,6.029,13.3041,4.60150,2470.717,2023-5-30T17:10:27Z
2023-05-30T15:11:18Z,42.805,6.029,13.3059,4.60123,2470.717,2023-5-30T17:13:31Z
2023-05-30T15:14:21Z,42.805,6.029,13.3061,4.60154,2470.754,2023-5-30T17:16:34Z
2023-05-30T15:17:24Z,42.805,6.029,13.3068,4.60149,2470.717,2023-5-30T17:19:37Z
2023-05-30T15:20:27Z,42.805,6.029,13.3060,4.60114,2470.73,2023-5-30T17:22:40Z
2023-05-30T15:23:31Z,42.805,6.029,13.3068,4.60132,2470.693,2023-5-30T17:25:43Z
2023-05-30T15:26:34Z,42.805,6.029,13.3070,4.60137,2470.717,2023-5-30T17:28:46Z
2023-05-30T15:29:37Z,42.805,6.029,13.3063,4.60155,2470.703,2023-5-30T17:31:49Z